Wind_Speed
71 72 73 73 73 73 74 74 75 76 77 77 77 77 76 76 76 75 74 74 73 72 71 71 71 71 72 72 73 73 74 74 75 75 76 77 78 78 79 80 80 81 82 83 83 84 84 85 86 86 87 87 88 88 89 89 90 90 91 91 92 93 94 95 96 95 92 91 92 94 96 99 99 99 100 100 99 99 99 99 99 98 96 95 94
73 74 74 74 74 75 75 76 76 77 77 77 77 77 76 76 75 75 74 74 73 72 72 73 73 73 73 74 74 75 75 76 76 77 78 78 79 80 80 81 81 82 82 83 84 85 85 86 87 88 88 89 89 90 91 91 91 92 92 93 93 93 95 96 96 96 93 90 89 89 91 94 95 94 96 97 97 97 99 99 99 100 100 99 97
74 75 75 75 76 76 76 76 77 77 77 77 77 77 76 76 75 75 74 74 74 73 74 74 74 75 75 76 76 76 77 77 78 79 79 80 80 81 81 82 82 83 84 85 85 86 87 88 89 89 90 90 91 91 92 92 93 93 93 94 94 94 96 97 98 98 97 94 92 91 92 94 95 94 96 97 96 96 97 97 98 99 100 100 100
76 76 76 77 77 77 77 77 77 77 77 77 77 76 76 75 75 74 74 74 74 74 74 75 76 76 77 77 78 78 79 79 80 80 81 81 82 82 83 83 84 85 86 87 87 88 88 89 89 90 90 90 91 91 91 91 92 92 92 93 93 94 95 96 97 98 98 97 95 95 95 96 98 98 98 100 99 98 98 98 98 98 98 98 99
77 77 77 77 77 77 77 77 78 78 77 77 76 76 75 74 74 74 74 74 74 75 76 76 77 78 78 79 79 80 80 81 81 82 82 83 83 84 85 85 86 87 87 88 88 88 88 88 88 88 88 88 88 89 88 89 89 89 90 90 90 91 91 91 92 93 94 95 94 94 95 96 99 100 100 102 102 100 100 101 101 100 100 99 98
77 77 77 77 77 77 77 78 78 78 77 77 76 74 74 73 73 74 74 75 75 76 77 77 78 79 80 81 81 82 82 82 83 83 84 85 85 86 86 87 87 87 87 86 86 86 85 85 85 84 84 84 84 84 84 84 84 84 85 85 85 86 85 85 86 87 87 88 88 88 89 90 93 95 97 99 101 101 102 102 101 101 101 101 100
77 77 77 76 77 77 78 78 78 78 77 76 74 73 73 73 74 74 75 75 76 77 78 79 80 81 82 82 83 84 84 84 85 86 86 86 86 86 86 86 85 84 83 82 82 81 81 80 80 79 79 79 79 79 79 79 79 79 79 79 79 79 80 80 80 81 81 81 81 81 81 82 84 86 87 89 92 95 98 101 101 100 100 101 101
76 76 76 76 76 77 77 77 77 76 75 74 73 73 73 74 74 75 76 77 78 79 80 81 82 82 83 84 84 85 85 86 86 86 86 86 85 85 83 82 81 80 79 78 77 76 75 75 74 74 74 75 75 75 75 75 75 75 75 75 75 76 76 76 77 77 77 77 76 76 76 76 76 77 79 80 81 84 88 92 94 95 96 96 96
75 75 75 75 76 76 76 76 75 75 74 73 73 73 74 74 75 76 77 78 79 80 81 82 83 83 84 84 85 85 85 85 85 84 84 82 81 80 78 77 75 74 73 73 72 71 71 71 71 71 71 72 72 73 74 75 75 75 75 75 76 76 76 76 76 76 76 75 74 74 74 73 72 72 73 74 74 75 78 81 83 86 89 90 89
75 74 74 74 74 74 74 74 74 73 73 73 74 74 75 76 77 78 79 80 81 81 82 83 83 83 83 83 84 84 83 82 81 80 78 77 75 73 72 70 70 69 68 68 67 68 68 68 69 70 71 72 73 74 75 76 77 77 78 78 78 78 78 78 77 77 76 75 74 73 72 71 70 70 71 70 69 69 71 73 73 76 80 82 82
73 73 72 72 72 72 72 72 72 72 73 74 75 76 77 78 79 80 80 81 81 82 82 82 82 81 81 81 80 79 78 76 75 73 72 70 69 67 66 65 65 65 65 65 66 67 68 69 70 71 72 74 75 76 77 77 78 78 78 78 78 78 78 78 78 77 77 75 74 73 71 70 69 70 69 68 67 67 68 68 69 70 72 74 75
71 71 71 70 70 69 70 71 72 73 75 76 77 78 78 79 80 81 81 81 80 80 80 79 79 78 77 76 75 73 72 70 68 67 66 65 64 63 63 63 63 64 65 66 67 68 69 70 71 72 73 74 74 75 75 75 75 74 74 74 74 74 74 74 74 74 74 73 72 71 70 69 68 68 68 67 65 65 65 66 67 67 68 69 70
69 69 68 68 68 69 70 72 73 75 76 77 78 79 80 80 80 80 80 79 78 77 76 75 74 73 72 70 68 67 65 63 62 62 62 62 62 62 63 64 65 66 68 69 69 70 70 70 71 71 71 71 71 71 71 70 69 68 68 67 67 67 67 68 68 69 69 68 67 66 66 66 66 65 65 64 62 62 62 63 64 65 66 67 67
67 66 67 68 69 70 71 73 75 76 77 78 79 79 80 80 79 78 77 76 74 73 72 71 69 68 66 64 62 61 61 60 60 61 62 62 63 64 65 66 67 68 68 69 69 69 69 69 68 68 68 68 68 68 67 66 64 63 62 62 61 61 62 62 63 64 64 63 62 61 61 61 61 61 60 59 57 57 58 58 59 61 63 64 65
66 66 67 69 70 71 72 74 76 77 78 78 79 79 79 77 76 74 73 71 70 69 67 66 64 62 61 59 58 59 59 60 61 62 63 64 64 65 66 66 66 67 67 67 67 66 66 66 66 66 66 65 66 65 64 63 61 60 58 58 57 57 57 58 58 59 60 59 58 56 55 55 55 55 55 54 53 53 54 54 54 56 58 59 60
66 67 68 69 70 72 74 76 77 78 78 78 78 77 75 73 72 70 69 67 66 64 62 60 59 58 57 57 57 58 60 61 61 62 63 64 64 65 65 65 65 65 65 65 64 64 64 64 64 64 63 63 63 63 63 62 60 58 56 55 54 54 53 53 54 54 55 55 54 53 51 51 51 51 51 51 50 50 51 50 51 53 54 54 54
66 68 69 71 73 75 76 77 78 78 77 76 74 72 71 69 68 66 65 63 61 59 57 56 56 56 56 57 58 59 60 61 62 62 63 63 63 63 63 63 63 63 63 63 62 62 62 62 62 62 62 61 61 61 61 61 60 58 56 54 53 51 50 50 50 50 50 51 51 51 50 50 51 51 50 50 50 50 50 48 49 51 51 50 49
68 70 72 73 75 76 77 77 76 75 73 71 69 68 67 66 64 63 61 58 56 55 54 54 55 56 57 57 58 58 59 60 61 61 62 62 62 62 62 61 61 61 61 61 61 60 60 60 60 61 61 60 60 59 60 60 59 58 57 54 52 49 48 47 47 46 47 47 49 50 51 51 52 52 52 52 52 52 50 48 48 49 49 47 46
71 72 74 75 76 76 75 74 72 70 68 67 66 65 64 62 61 58 56 54 54 54 54 54 55 56 56 57 57 57 58 59 60 60 60 61 61 60 60 60 60 60 59 59 59 59 59 59 60 60 60 60 60 59 59 59 59 58 56 54 52 49 47 46 45 45 45 46 47 48 50 51 52 52 52 52 53 53 52 49 47 48 47 46 45
73 74 74 74 74 72 70 68 66 66 65 64 63 62 60 59 57 55 54 53 53 53 54 54 55 55 55 56 56 56 56 57 58 58 58 59 59 59 58 58 58 58 58 58 58 58 59 59 59 60 60 60 60 60 59 58 58 57 55 53 51 49 47 45 43 44 45 45 46 46 47 49 50 51 51 51 52 52 53 51 49 47 46 44 44
72 72 71 70 68 66 65 64 63 62 61 60 59 58 57 55 54 53 53 52 52 53 53 54 54 54 54 54 55 55 54 55 55 56 56 56 56 57 57 57 57 57 57 58 58 58 59 59 59 60 60 60 60 59 58 57 56 55 53 51 49 48 47 44 43 44 45 45 45 45 46 46 47 49 49 49 50 50 51 52 51 50 48 45 44
69 67 65 64 63 62 61 60 60 59 58 57 57 56 54 53 53 52 51 51 51 52 52 52 52 53 53 53 53 53 52 52 53 53 53 54 55 55 56 56 57 58 58 58 58 59 59 60 60 60 60 60 59 58 57 56 55 53 50 49 47 47 46 44 43 43 43 43 43 44 44 45 46 47 47 48 48 49 49 50 51 52 51 49 48
62 60 60 59 59 58 58 57 57 56 55 55 55 53 52 52 51 50 50 50 50 51 51 52 52 52 52 52 52 51 51 51 52 52 53 54 55 56 56 57 58 59 60 60 60 60 61 61 61 60 60 59 59 57 56 55 53 50 48 47 46 45 45 44 42 42 41 42 42 42 43 44 45 46 47 47 48 49 50 51 52 53 52 52 52
56 57 57 57 56 56 56 55 54 53 53 53 52 51 51 50 49 49 49 49 50 50 51 52 52 52 52 52 52 52 51 52 52 53 54 54 55 56 57 58 59 60 61 62 62 62 62 62 62 61 60 60 58 57 55 53 50 47 45 45 45 44 44 44 43 43 42 43 43 43 45 46 47 48 48 49 50 51 53 54 55 55 55 55 54
54 55 55 54 54 54 54 53 52 51 52 51 50 50 49 49 48 48 49 49 50 51 51 52 53 53 53 53 53 53 53 53 53 54 55 55 56 57 58 59 60 62 63 63 63 63 63 62 61 60 60 59 57 56 53 51 47 45 44 45 45 45 45 45 45 46 46 46 46 46 47 48 49 50 51 51 52 53 55 56 57 57 58 57 56
54 53 53 52 53 53 52 50 49 50 50 50 49 49 49 48 48 49 50 50 51 52 52 53 54 55 55 55 55 55 55 55 56 56 57 57 57 58 59 61 62 63 63 63 62 62 61 61 59 58 57 56 55 53 50 46 43 43 44 45 46 47 47 47 47 47 47 47 47 47 48 49 50 51 52 52 53 54 55 57 57 57 57 57 56
54 53 52 52 52 52 50 49 49 49 49 49 49 49 49 49 49 50 51 52 53 53 54 55 56 56 57 57 57 57 58 58 58 59 59 59 59 60 61 63 64 64 63 61 60 59 58 58 56 55 54 53 52 48 44 42 41 42 44 45 46 47 47 47 47 47 47 47 47 48 48 49 50 51 51 52 53 54 55 56 56 56 55 55 54
55 54 53 53 52 51 50 49 48 49 49 49 49 49 50 50 51 52 53 54 55 55 56 57 57 58 58 58 58 59 59 60 60 61 61 62 62 62 63 65 66 65 62 60 58 56 55 54 52 52 51 49 46 42 40 40 40 41 43 44 44 45 46 47 48 48 48 48 48 48 49 49 50 50 51 51 52 52 53 53 53 53 52 52 51
56 55 54 53 52 51 50 49 48 49 50 50 50 51 52 53 54 55 56 57 57 57 58 58 59 59 59 59 60 60 60 61 62 62 63 64 64 64 65 66 67 66 62 58 56 54 53 51 50 50 48 43 39 38 37 38 39 41 42 43 43 44 46 46 47 48 49 49 49 49 49 49 50 50 50 50 50 49 48 48 49 49 50 50 50
56 56 55 54 53 52 51 51 50 50 50 51 52 53 54 55 56 57 58 59 59 59 60 60 61 61 61 61 61 61 61 62 63 63 64 64 65 66 66 67 69 66 61 56 55 53 51 50 49 47 42 37 35 36 36 37 38 40 42 42 43 44 45 45 46 47 48 49 49 49 49 49 49 49 49 48 46 45 44 45 46 48 49 50 51
57 57 56 55 55 54 54 54 53 52 53 53 54 55 56 58 58 59 60 60 61 61 62 62 62 62 62 62 63 63 63 63 63 63 64 65 66 66 67 68 69 66 60 56 54 52 50 49 47 42 36 34 34 35 35 36 38 39 41 42 42 43 43 44 45 46 47 48 49 49 49 48 48 46 45 43 41 41 42 43 46 48 50 51 53
58 58 57 57 57 57 56 56 56 55 55 56 57 58 59 59 60 61 61 62 62 63 64 63 63 64 64 64 64 64 64 64 64 64 65 65 66 67 67 68 69 65 59 55 54 52 50 48 42 36 33 33 34 34 35 36 37 39 39 40 41 42 43 44 45 46 47 48 48 48 47 46 45 42 40 38 38 38 40 43 45 48 49 51 52
59 59 59 59 59 59 59 59 58 58 58 59 60 60 60 60 61 62 62 63 63 64 64 64 64 64 64 65 65 65 64 64 64 65 65 65 66 66 67 68 68 65 58 55 54 52 50 44 37 33 33 34 34 34 35 36 37 38 38 39 40 41 42 44 45 46 46 46 46 45 44 43 40 38 36 36 36 38 40 42 44 46 47 47 47
60 60 60 60 60 61 61 61 60 60 60 61 61 61 61 61 62 62 63 64 64 64 64 64 65 65 64 65 65 65 64 64 65 65 65 65 65 66 66 67 68 64 58 55 54 52 47 40 34 33 34 34 33 34 35 36 37 37 38 38 39 41 42 43 44 45 45 44 43 42 41 39 37 35 34 34 36 37 40 41 42 42 43 44 44
62 62 61 61 61 61 62 62 61 61 61 62 62 62 62 62 62 62 63 64 64 65 65 65 65 65 65 65 65 65 65 65 65 66 65 64 64 65 65 67 67 63 57 54 54 50 42 36 33 33 34 33 33 34 35 36 36 37 37 38 39 40 41 42 42 43 43 42 41 40 38 37 35 33 33 34 35 37 38 39 38 38 40 42 42
63 63 62 61 61 62 62 61 61 61 62 62 63 63 63 63 63 64 65 65 65 64 65 66 66 65 65 65 65 64 65 65 66 65 64 63 64 65 65 66 66 61 56 54 52 46 38 34 33 33 33 33 34 34 35 36 36 37 37 38 39 40 40 40 40 40 40 39 39 38 37 35 34 33 33 34 36 37 38 37 36 36 38 40 41
63 63 62 62 62 62 62 62 61 61 61 62 62 63 64 64 65 65 65 65 65 65 65 65 66 65 66 65 65 65 65 66 65 64 63 63 64 64 65 66 65 58 54 53 50 42 35 34 34 34 33 33 33 34 35 35 36 37 37 38 39 39 39 38 38 37 37 37 38 37 37 35 34 33 34 34 36 37 37 36 35 35 36 39 41
63 63 63 63 63 63 62 61 60 60 60 61 62 63 64 65 65 66 66 66 67 67 66 66 65 66 66 66 66 66 66 65 64 63 62 63 63 64 65 66 62 55 53 52 46 38 34 34 34 33 33 33 33 34 35 35 36 37 37 38 38 38 37 37 36 36 36 36 36 36 36 35 34 33 33 34 34 35 36 36 35 34 36 40 42
63 63 63 63 63 62 61 60 59 59 60 61 62 63 64 65 66 67 67 68 68 67 67 66 65 65 66 66 66 66 66 64 63 61 62 63 64 64 66 65 58 52 51 49 42 35 34 34 33 33 32 32 32 34 35 35 36 36 36 36 37 36 36 35 35 35 34 34 34 34 34 33 33 32 32 32 33 34 35 36 35 35 36 39 41
61 61 61 61 61 61 60 59 60 61 62 62 63 64 65 66 67 67 68 68 68 67 67 66 65 66 66 66 66 66 65 64 62 61 62 63 64 66 66 62 54 50 49 44 37 34 33 33 33 32 32 31 32 34 34 35 36 36 35 35 35 35 34 34 34 34 33 33 32 33 33 31 30 30 31 31 32 33 34 34 34 35 36 38 38
59 59 60 60 60 60 60 60 61 62 63 64 65 66 67 67 67 67 68 68 68 68 67 67 66 67 67 67 67 66 64 63 62 62 62 63 64 65 64 58 51 49 46 40 34 32 33 33 33 32 32 32 33 34 34 35 35 35 34 34 34 33 33 33 33 33 33 32 31 31 31 30 29 28 28 29 30 31 32 32 32 33 36 38 35
58 58 59 60 60 60 60 61 63 64 65 66 67 67 67 67 68 68 69 70 70 70 69 69 69 69 69 69 68 66 65 64 63 63 63 63 63 63 59 53 49 47 43 37 33 32 32 32 32 32 31 32 33 34 34 34 34 34 33 33 33 32 31 32 32 32 32 32 31 30 30 30 29 28 27 27 27 29 30 31 30 32 35 36 34
58 58 59 60 60 61 63 64 65 66 67 67 68 68 69 69 70 71 72 72 72 72 72 71 71 71 71 71 69 68 66 64 64 64 64 63 62 58 53 49 47 45 39 35 32 31 31 31 31 31 32 32 33 34 34 34 34 33 32 32 32 31 30 30 31 31 31 31 31 30 29 29 28 28 27 26 27 28 29 29 29 30 32 35 34
58 59 60 61 62 63 64 65 65 66 67 68 69 70 71 72 73 73 74 74 74 75 74 74 74 73 73 72 70 69 67 66 65 65 64 62 58 53 49 47 45 41 36 33 31 31 30 30 30 31 32 33 33 34 34 34 33 33 32 31 31 30 30 29 29 30 30 30 29 29 29 28 28 27 27 26 26 26 27 28 28 29 30 32 33
60 61 62 62 63 63 64 65 66 67 69 70 71 73 74 74 75 76 76 77 78 78 77 77 76 75 74 73 72 71 69 68 67 65 62 58 53 50 47 45 42 38 34 32 31 30 29 29 29 30 31 33 33 33 33 33 33 32 31 30 30 30 29 29 29 29 29 28 28 28 28 28 27 26 26 26 25 25 26 26 27 27 28 30 32
62 63 62 63 63 64 65 66 68 69 71 72 73 74 76 77 78 79 80 81 81 80 80 79 78 77 76 76 75 74 71 69 66 62 58 54 51 48 46 44 40 35 32 31 30 29 29 28 28 29 31 32 33 33 33 33 33 32 30 29 29 29 29 29 28 28 28 27 27 27 27 27 27 26 25 25 25 25 25 25 26 26 26 27 30
62 62 63 63 64 65 67 69 70 72 73 74 76 77 78 80 81 83 84 84 84 84 83 82 81 80 78 77 75 73 70 66 63 59 56 52 49 46 45 42 37 33 31 30 29 29 28 28 28 29 31 32 32 32 32 32 32 32 30 29 28 28 28 28 28 28 27 27 26 26 25 26 26 26 25 25 25 25 24 24 25 25 25 26 27
62 63 64 65 67 68 70 72 73 74 75 77 78 80 82 84 86 87 87 87 87 85 84 82 80 78 76 74 71 68 65 62 59 56 52 49 46 44 42 38 34 31 30 29 29 28 27 27 28 29 31 31 31 31 31 32 31 31 30 29 28 28 28 28 28 28 27 27 26 25 25 25 25 25 25 24 24 24 24 24 24 24 24 24 25
63 65 66 68 70 71 73 74 75 77 78 80 83 85 87 88 89 88 87 85 83 80 78 76 74 72 70 68 65 62 59 56 53 50 48 46 43 41 38 34 31 29 29 28 28 27 27 27 28 29 30 30 30 31 30 30 30 30 29 29 28 27 27 27 27 27 27 27 26 26 25 24 24 24 24 24 24 24 24 24 24 23 23 23 23
66 67 69 71 72 73 75 76 78 80 83 86 87 88 88 86 84 82 80 78 76 75 73 71 69 67 65 63 60 56 53 50 47 45 43 41 40 37 34 31 29 28 27 27 27 27 27 27 27 28 29 29 29 29 29 29 28 28 28 28 28 27 27 27 27 27 27 27 26 26 25 24 24 23 23 23 23 23 23 23 23 23 23 22 22
68 70 71 72 73 75 77 79 82 85 86 86 84 82 80 78 77 76 74 73 71 69 67 64 62 60 58 56 54 51 47 44 42 40 39 37 35 33 30 28 27 27 26 26 26 26 26 26 27 27 27 27 28 28 27 27 27 27 27 27 27 27 27 27 27 27 27 27 26 26 25 24 24 23 23 23 22 22 22 22 22 22 23 22 22
Wind_Direction
292 293 294 295 296 296 297 297 297 297 297 296 296 295 295 294 294 293 293 292 292 291 291 290 289 288 288 288 288 288 288 288 287 287 287 287 287 286 286 286 286 285 285 285 285 285 285 284 284 284 284 283 283 282 282 281 281 280 279 278 278 277 277 276 275 274 272 271 270 269 268 267 266 266 267 266 265 265 265 264 263 262 260 259 259
294 295 295 296 296 297 297 297 297 296 296 295 295 295 294 294 293 293 292 292 291 291 290 290 289 289 289 289 289 289 289 289 289 288 288 288 288 288 287 287 287 287 287 287 286 286 286 286 286 286 285 285 285 284 284 283 283 282 281 281 280 279 278 277 277 276 274 272 271 270 269 269 268 266 266 266 264 264 264 263 262 262 261 259 258
295 295 296 297 297 297 297 297 296 295 295 295 295 294 294 293 292 291 291 291 290 290 290 290 290 290 290 290 290 290 290 290 290 290 289 289 289 289 289 288 288 288 288 288 288 287 287 287 287 287 286 286 286 285 284 284 283 283 282 282 281 281 280 280 279 278 277 274 272 271 270 269 268 267 266 266 265 264 264 263 262 261 261 260 259
295 296 297 297 297 297 296 296 295 295 295 294 294 293 292 291 291 290 290 290 290 290 290 290 290 291 291 291 291 291 291 291 290 290 290 290 290 290 290 289 289 289 289 289 288 288 288 288 287 287 286 286 285 285 284 284 283 283 282 282 282 281 281 280 280 279 278 277 275 273 271 270 269 268 266 266 265 264 264 263 262 262 261 260 259
296 296 296 296 296 296 295 295 295 294 294 293 292 292 291 291 290 290 290 290 290 291 291 291 291 292 292 292 292 292 291 291 291 291 291 291 291 290 290 290 290 289 289 289 289 288 288 287 287 286 286 285 285 284 284 283 283 282 282 281 281 281 280 280 280 280 279 278 277 275 274 272 270 269 268 266 265 264 264 263 263 262 261 260 259
296 296 295 295 295 295 294 294 294 293 293 292 291 291 290 290 290 290 290 291 291 292 292 292 292 292 293 293 293 292 292 292 292 292 292 291 291 291 290 290 290 290 289 289 289 288 288 287 287 286 285 285 284 284 283 283 282 282 282 281 281 281 280 280 280 279 279 279 278 276 275 273 272 271 270 268 267 265 264 262 262 261 261 260 259
294 294 294 294 294 294 294 293 292 292 291 291 291 290 290 290 291 291 291 292 292 293 293 293 293 293 294 293 293 293 293 293 293 292 292 292 291 291 291 291 290 290 290 290 289 288 288 287 286 286 285 285 284 284 283 283 282 282 282 281 281 281 280 280 280 279 279 279 278 277 276 275 273 272 271 270 269 267 265 264 262 261 261 260 259
293 293 293 293 293 293 292 292 291 291 290 291 291 291 291 291 292 292 293 293 294 294 294 294 294 294 294 294 294 294 293 293 293 292 292 292 291 291 291 291 290 290 290 289 289 288 287 287 287 286 286 285 285 285 284 284 283 283 283 282 282 281 281 280 280 279 279 279 278 277 276 275 274 273 272 271 270 269 268 266 264 262 261 260 260
293 293 293 293 292 291 291 290 290 290 291 291 291 291 292 292 293 293 294 294 294 295 295 295 295 294 294 294 293 293 293 292 292 291 291 291 291 291 290 290 290 289 289 288 288 288 288 287 287 287 287 287 287 286 286 286 285 285 284 284 283 283 282 281 280 280 279 279 278 277 277 276 275 274 273 272 271 269 269 268 267 265 263 261 260
293 292 292 291 290 290 290 290 290 290 291 291 292 292 293 293 294 294 295 295 295 295 295 295 294 294 293 293 292 292 292 291 291 291 291 290 290 290 290 290 289 289 288 288 288 288 289 289 289 289 289 288 288 288 288 287 287 286 286 285 284 283 282 281 280 279 279 278 278 277 277 276 276 275 273 273 272 271 270 269 268 267 266 264 261
291 291 290 289 289 289 289 289 290 290 291 291 292 293 294 294 295 295 295 295 295 295 294 294 293 293 292 292 291 291 291 291 291 291 291 291 291 291 290 290 290 290 290 290 290 290 290 290 290 290 290 289 289 288 288 288 287 287 286 286 285 284 283 282 280 279 278 278 277 277 276 276 275 275 274 273 273 272 271 271 269 268 267 266 263
290 289 288 288 288 289 289 289 290 291 291 292 293 294 295 295 295 295 295 295 295 294 293 293 292 292 291 291 291 291 291 291 291 291 292 292 292 292 292 292 292 292 292 292 291 291 291 291 291 290 290 290 289 289 288 288 288 288 287 287 287 286 285 284 282 281 279 278 277 276 276 275 275 274 274 274 274 273 272 271 270 269 267 266 265
288 288 288 288 289 289 289 290 291 291 292 293 294 295 295 295 295 295 295 294 294 293 292 292 291 291 291 291 291 292 292 292 292 293 293 293 294 294 294 294 294 293 293 293 293 293 292 292 292 292 291 291 291 290 290 289 289 289 289 289 288 288 287 286 285 283 281 280 278 276 275 275 274 274 275 275 274 273 272 271 270 269 268 267 265
287 288 288 289 289 289 290 291 292 293 293 294 295 295 295 295 295 294 294 293 292 292 291 291 291 292 292 292 293 293 293 294 294 295 295 295 295 295 295 295 295 294 294 294 294 294 294 294 294 294 293 293 292 292 291 291 291 291 290 290 289 289 288 287 287 285 284 283 281 279 277 276 275 275 275 275 275 274 273 272 271 270 269 268 266
288 288 288 289 289 290 291 292 293 293 294 294 295 295 295 295 294 294 293 292 292 292 292 292 293 293 294 294 295 295 296 296 296 296 296 296 296 296 296 296 296 296 296 296 296 296 296 296 295 295 294 294 294 294 293 292 292 292 291 290 290 289 288 287 286 285 285 285 284 282 281 280 278 277 276 276 275 275 274 273 273 271 269 268 267
288 289 289 290 291 292 292 293 293 294 294 294 295 295 295 294 293 293 292 292 293 293 294 294 295 295 296 296 297 297 297 297 297 297 297 297 298 298 298 298 298 298 298 298 298 297 297 297 296 296 296 295 295 295 295 294 293 293 292 291 290 289 287 285 284 284 285 285 285 284 283 282 281 279 278 277 276 276 275 275 275 273 271 268 267
289 290 290 291 292 293 293 294 294 294 295 295 295 295 294 294 293 293 293 294 295 295 295 296 296 297 297 298 298 298 298 298 298 298 299 299 300 300 300 300 300 300 299 299 299 298 298 298 297 297 296 296 296 296 295 295 294 294 293 292 290 288 286 283 282 283 283 284 285 285 285 283 282 281 281 280 279 278 277 277 276 275 272 270 268
290 291 292 293 294 294 294 294 294 295 296 296 295 295 294 294 294 295 295 296 296 296 296 297 298 298 299 299 299 299 299 299 300 300 300 301 301 301 301 301 301 300 300 300 300 299 298 298 298 297 297 297 297 297 296 295 295 294 293 292 290 287 284 282 281 281 281 282 283 283 283 283 283 282 282 282 282 281 280 279 277 276 275 272 270
291 292 293 294 294 294 294 294 296 296 296 296 295 295 294 295 295 296 296 296 296 297 298 299 299 300 300 300 300 300 300 300 301 301 301 302 302 302 302 302 301 301 301 300 300 300 299 299 299 298 298 298 298 297 297 297 296 295 294 292 290 287 283 281 280 280 280 279 279 280 281 282 282 283 283 283 283 283 283 281 278 276 275 274 271
292 293 294 294 293 294 295 296 297 297 296 296 296 295 295 296 296 296 296 297 298 299 299 300 300 301 301 301 301 301 301 301 301 302 302 302 303 303 302 302 302 301 301 301 300 300 300 299 299 299 299 299 298 298 298 297 296 295 294 291 288 286 283 281 280 280 279 278 278 277 278 279 280 280 281 282 282 283 284 283 281 279 277 275 273
293 294 293 293 294 295 296 297 298 297 297 297 296 296 296 297 296 296 297 298 299 300 300 301 302 302 302 302 302 302 302 302 302 302 303 303 304 304 304 303 303 302 302 302 301 301 300 300 299 299 299 298 298 298 298 297 296 295 293 289 286 284 282 281 280 280 279 279 278 278 278 277 277 278 279 279 280 280 281 282 283 282 281 278 276
293 293 293 294 295 297 298 299 299 299 298 297 296 297 297 296 296 297 298 299 300 301 301 302 302 303 304 304 304 304 304 304 304 304 305 306 306 306 306 305 305 304 304 303 302 302 301 300 299 299 298 298 297 297 297 297 296 295 291 287 285 284 283 282 281 279 279 279 279 279 279 278 278 278 278 278 279 279 279 280 281 281 282 281 280
293 294 295 296 297 299 300 300 300 299 298 297 297 297 296 295 296 298 299 300 300 301 302 303 304 305 306 307 307 307 307 307 307 307 308 308 308 308 308 308 307 306 306 305 304 303 301 300 299 299 299 298 298 298 297 296 295 293 289 286 286 285 285 285 284 283 281 280 280 281 282 282 281 281 281 280 280 281 281 281 281 281 281 281 281
294 295 296 298 299 301 302 302 301 299 298 297 297 296 295 295 297 298 299 300 300 301 303 304 305 307 308 309 310 310 310 310 310 310 311 311 310 310 310 310 309 308 307 305 304 303 302 301 301 300 300 299 298 298 297 296 294 291 287 285 286 287 288 289 289 289 288 287 286 286 286 286 285 285 284 283 283 282 282 282 282 282 281 281 281
295 296 298 299 300 301 302 302 300 298 297 296 295 294 294 295 296 297 299 300 301 303 304 305 306 307 308 309 311 312 312 312 312 312 312 312 312 312 312 312 311 309 308 306 304 303 302 301 301 300 300 299 298 298 297 295 293 290 288 289 290 290 291 291 291 291 290 290 289 288 288 287 287 287 286 285 285 284 284 283 283 282 282 281 280
296 297 298 299 300 301 301 300 298 297 296 295 294 294 294 295 296 297 299 301 303 304 305 306 307 307 308 309 311 312 312 313 313 312 312 312 312 313 313 313 313 311 309 306 303 301 300 300 300 300 299 298 298 297 295 293 290 289 289 290 291 291 291 290 290 290 290 290 289 289 289 289 288 288 287 287 286 285 284 284 283 283 282 281 280
295 296 297 298 299 299 299 298 296 295 294 294 294 294 294 295 296 298 300 301 303 304 305 306 307 307 308 309 310 310 311 312 312 312 312 312 312 313 315 315 315 313 309 305 302 299 298 299 299 299 298 298 297 295 293 290 288 288 289 290 290 291 291 291 291 291 290 290 291 291 290 290 289 289 288 288 287 286 285 284 283 283 282 282 281
296 296 297 297 297 297 297 296 295 293 293 293 293 293 294 295 296 297 299 300 302 304 305 306 306 307 307 308 308 309 309 310 311 311 312 313 313 314 316 317 317 314 310 305 302 300 299 299 300 299 299 298 296 293 290 289 289 289 290 290 291 292 292 293 293 293 293 293 293 292 292 291 291 290 290 289 288 287 287 286 285 284 284 284 283
296 297 296 296 296 295 294 294 293 292 292 292 292 293 293 294 295 296 297 299 301 302 304 305 306 307 307 307 307 307 308 309 309 310 312 313 313 314 316 317 317 316 311 307 304 302 301 301 301 300 299 296 292 290 290 291 292 292 292 292 292 293 293 294 294 294 294 294 294 294 293 293 292 291 291 290 289 288 287 287 286 286 286 286 285
295 296 296 295 294 293 292 292 291 291 291 291 291 292 292 293 295 296 296 298 299 301 303 304 305 306 307 307 306 306 307 308 309 310 311 312 313 314 315 317 318 317 312 308 306 304 303 302 302 300 297 292 289 290 291 292 293 293 293 293 293 293 294 294 294 294 295 295 295 295 295 294 293 293 292 290 289 287 287 286 286 286 287 287 287
294 294 294 293 292 291 290 290 290 289 289 289 290 291 292 293 294 295 296 297 298 300 301 302 303 305 305 306 306 306 306 307 308 309 311 311 313 314 315 316 319 318 313 308 306 305 304 304 302 298 294 290 290 291 292 293 293 293 293 294 294 294 295 295 296 296 296 297 297 298 297 296 295 293 292 290 288 286 285 286 287 288 289 289 289
292 292 291 290 290 289 289 289 289 288 288 288 288 289 291 293 294 294 295 296 298 299 300 300 301 303 304 304 305 305 305 306 308 309 310 311 312 313 314 316 319 318 312 308 306 305 305 304 300 295 292 292 293 294 294 294 294 293 293 294 296 297 297 298 298 298 298 299 300 300 299 298 296 294 292 290 287 286 286 287 289 291 292 292 292
289 289 288 288 287 288 288 288 288 288 287 287 287 289 290 292 293 294 295 296 297 298 298 299 300 301 302 303 303 304 304 305 307 308 309 310 311 312 313 316 318 317 311 307 306 306 305 303 297 293 293 294 295 296 296 296 295 295 295 296 297 299 300 300 300 300 301 301 302 301 300 299 297 295 292 290 288 288 289 291 293 294 295 296 296
287 286 286 285 285 286 286 287 287 288 288 288 288 289 290 292 293 294 294 295 296 296 297 297 298 300 300 301 302 302 303 304 305 307 307 309 310 311 312 315 317 315 310 306 306 306 304 299 294 292 294 295 295 297 297 297 296 297 297 299 300 301 301 302 302 303 303 304 304 304 302 300 297 294 291 290 290 291 294 295 296 298 298 298 298
285 284 283 283 283 285 286 286 286 287 288 288 288 288 289 291 292 293 293 294 294 295 295 296 297 298 299 299 300 300 300 301 303 305 306 307 309 310 312 314 316 313 308 306 306 305 300 294 291 293 295 296 297 298 298 298 298 299 300 301 302 303 303 303 304 304 305 306 306 306 304 300 297 294 292 291 292 295 297 298 298 299 300 300 299
284 282 281 280 282 284 285 286 286 287 288 288 288 288 289 290 291 291 292 292 293 294 295 295 296 297 297 297 297 298 298 300 301 303 305 306 308 309 311 314 315 311 307 305 305 302 295 290 291 294 296 296 298 299 299 299 300 301 302 303 304 304 304 305 305 306 306 307 308 308 306 300 296 295 294 294 295 298 300 299 298 300 302 302 302
283 281 279 279 280 282 284 286 287 287 287 287 287 287 288 289 290 291 291 291 292 293 294 295 295 295 295 295 296 296 297 298 300 302 303 305 307 308 311 313 313 309 305 304 303 298 291 289 291 294 295 296 298 299 300 301 302 302 304 304 305 305 306 306 307 307 307 308 310 311 308 303 297 295 295 296 298 300 302 300 299 301 304 305 305
283 281 279 278 279 281 284 286 286 285 285 285 286 287 288 289 289 290 290 291 292 293 293 293 293 293 293 294 294 295 296 297 299 301 302 304 305 308 310 312 310 306 303 303 300 293 287 288 291 292 294 297 299 300 301 302 303 303 304 305 306 306 307 308 308 308 307 309 312 312 310 306 300 297 296 297 300 303 303 300 299 302 306 307 307
283 282 280 279 279 281 283 284 283 283 284 285 286 287 288 289 289 289 290 291 292 292 292 292 292 292 292 293 294 294 295 297 298 300 301 303 304 307 310 310 306 303 302 300 295 288 285 287 290 292 294 298 300 301 302 303 303 304 304 305 306 306 307 308 309 309 307 308 312 314 312 308 304 300 299 299 302 304 304 302 300 302 306 309 308
283 282 281 280 280 281 282 282 283 284 285 285 286 287 288 288 289 289 290 291 291 292 292 291 291 291 291 292 293 294 295 296 298 299 300 302 304 307 308 307 303 301 300 296 289 284 285 288 290 293 296 299 301 302 302 302 303 303 304 305 305 305 306 308 309 309 307 307 310 314 314 311 307 303 301 301 303 305 305 303 302 302 306 310 310
284 283 281 280 281 281 282 283 284 284 285 286 287 287 288 288 289 289 290 291 291 291 292 291 291 291 291 291 292 293 295 296 297 298 300 302 304 306 306 303 300 300 298 291 284 283 286 288 291 294 297 300 301 301 302 302 303 303 304 304 304 305 306 308 309 310 308 307 308 312 315 314 311 306 303 302 304 306 307 305 303 303 307 312 312
284 283 282 281 281 282 283 284 285 285 286 286 287 287 287 287 288 289 290 290 291 291 291 291 291 291 291 291 292 293 295 295 296 298 299 301 303 304 302 299 298 298 293 285 280 282 286 288 291 294 297 300 301 301 301 302 303 303 304 304 304 304 304 306 309 310 309 307 307 310 314 317 316 312 307 305 306 308 309 307 305 305 309 314 314
283 282 281 281 282 283 284 284 285 285 286 286 286 286 287 287 288 289 289 289 290 290 290 290 290 290 290 291 292 293 293 294 295 296 298 299 300 300 297 295 296 295 287 279 278 281 284 287 291 294 297 299 300 301 301 302 303 303 303 303 304 303 303 304 307 309 310 309 308 308 311 316 319 317 314 311 310 311 311 309 308 307 311 315 316
282 282 282 283 283 284 285 285 285 286 286 286 286 287 287 287 288 288 288 288 288 288 288 288 289 289 289 290 290 291 291 292 293 294 295 296 296 295 293 293 294 289 280 275 276 279 282 285 290 294 297 299 299 300 301 302 303 303 302 303 303 303 302 302 304 306 309 310 309 308 309 312 317 320 320 317 314 312 311 311 310 310 313 317 319
283 283 283 284 284 285 285 285 286 286 286 286 286 287 287 287 287 287 287 288 288 288 287 288 288 288 288 288 288 289 289 290 291 291 292 292 292 290 290 292 290 283 274 271 275 277 280 284 289 293 296 298 299 300 301 302 303 302 302 302 303 302 301 301 302 304 307 309 309 309 308 309 312 318 321 321 318 315 313 312 313 313 314 318 320
284 284 284 284 285 285 286 286 286 286 286 286 286 286 286 286 287 287 287 287 287 287 287 286 286 286 286 286 286 287 287 287 287 287 287 287 287 286 287 289 285 276 269 270 273 275 279 283 288 293 296 297 299 300 301 302 303 302 302 303 303 303 302 301 300 302 305 307 309 310 309 309 310 313 318 322 322 319 317 316 316 316 317 320 323
284 284 285 285 286 286 287 287 287 286 286 286 286 286 287 287 287 287 287 286 286 286 285 285 285 285 285 284 284 284 283 283 283 283 283 282 282 282 284 284 278 269 265 268 271 274 278 283 288 293 296 297 299 300 301 302 303 303 302 303 304 305 304 302 301 301 302 305 308 310 311 311 311 311 314 319 322 323 322 320 320 320 320 322 325
284 285 286 287 288 288 288 288 287 287 287 287 287 287 288 287 287 287 286 286 285 285 285 284 284 283 282 281 280 280 279 279 278 278 277 277 276 277 279 277 269 262 263 267 270 273 278 283 289 293 296 297 299 300 301 302 303 302 302 302 303 305 306 305 303 301 301 303 306 308 310 312 313 312 312 314 318 322 324 324 323 323 324 325 328
286 287 288 289 289 289 289 289 288 288 288 288 288 288 288 288 288 287 286 286 285 285 284 283 281 280 279 278 277 276 275 274 273 272 272 271 271 272 272 267 259 257 261 266 269 273 279 284 289 293 295 298 300 301 302 303 303 302 302 302 303 305 306 307 305 304 302 301 303 306 308 311 313 314 315 314 314 317 322 324 324 325 325 327 329
288 289 290 290 290 290 290 289 289 289 289 290 290 290 289 289 288 288 287 286 285 284 282 281 279 277 276 274 273 272 270 269 268 266 265 264 265 265 262 256 251 254 260 264 268 273 279 284 289 293 296 298 300 301 302 302 302 302 302 303 304 305 306 307 307 307 305 303 301 302 305 308 311 314 315 315 313 313 316 321 324 326 326 327 328
289 290 290 290 290 290 291 291 291 291 291 291 291 291 290 290 289 289 288 287 285 283 281 279 277 275 273 271 269 267 264 262 261 259 257 257 258 256 250 246 248 253 259 263 268 274 279 284 289 293 296 299 301 302 303 303 302 302 302 303 304 305 306 307 308 308 308 306 303 301 302 304 307 310 312 314 314 314 314 315 319 323 325 326 327
Height
5698 5695 5692 5689 5686 5682 5680 5677 5675 5673 5670 5667 5665 5662 5659 5656 5653 5649 5646 5643 5641 5638 5636 5633 5631 5628 5626 5623 5621 5619 5616 5614 5612 5610 5607 5604 5601 5598 5595 5593 5590 5587 5584 5581 5578 5575 5573 5570 5567 5565 5562 5560 5558 5554 5552 5550 5548 5546 5544 5542 5542 5538 5535 5534 5531 5537 5550 5552 5551 5554 5551 5547 5551 5552 5547 5548 5552 5551 5552 5555 5557 5559 5562 5564 5567
5689 5686 5682 5679 5676 5673 5671 5669 5666 5664 5661 5658 5655 5652 5649 5646 5643 5640 5637 5634 5632 5629 5626 5624 5621 5618 5616 5613 5610 5608 5606 5603 5601 5599 5596 5593 5590 5587 5584 5581 5578 5575 5572 5569 5566 5563 5560 5558 5555 5552 5549 5546 5543 5540 5538 5536 5533 5531 5529 5526 5526 5524 5520 5518 5517 5518 5527 5536 5538 5539 5538 5530 5532 5537 5531 5529 5535 5536 5534 5538 5540 5541 5544 5548 5551
5680 5676 5673 5670 5667 5664 5662 5659 5657 5654 5651 5648 5645 5642 5639 5636 5633 5630 5627 5625 5622 5619 5616 5613 5611 5608 5605 5603 5600 5597 5595 5593 5590 5587 5585 5582 5579 5575 5572 5569 5566 5563 5560 5557 5554 5551 5548 5546 5542 5539 5536 5533 5530 5526 5523 5521 5519 5516 5514 5511 5509 5509 5506 5502 5502 5501 5505 5515 5521 5523 5523 5517 5513 5518 5516 5511 5516 5521 5519 5520 5523 5524 5527 5531 5534
5670 5667 5664 5661 5658 5655 5652 5649 5646 5644 5641 5639 5636 5633 5630 5627 5624 5621 5618 5615 5613 5610 5606 5603 5600 5597 5595 5592 5589 5587 5584 5582 5579 5576 5573 5570 5567 5564 5561 5558 5555 5551 5548 5545 5542 5539 5536 5533 5529 5525 5522 5519 5516 5513 5510 5507 5505 5502 5500 5498 5495 5494 5492 5488 5486 5485 5485 5492 5501 5503 5504 5502 5497 5499 5500 5496 5498 5504 5504 5503 5505 5507 5510 5514 5516
5661 5658 5655 5651 5648 5645 5642 5639 5636 5633 5631 5629 5626 5624 5621 5618 5615 5612 5609 5606 5603 5600 5596 5593 5590 5587 5584 5581 5578 5576 5573 5571 5568 5565 5562 5559 5556 5553 5549 5546 5543 5539 5536 5532 5529 5526 5523 5519 5516 5512 5509 5506 5502 5499 5497 5494 5492 5490 5487 5485 5483 5480 5479 5476 5472 5471 5469 5472 5479 5483 5484 5483 5480 5480 5482 5479 5481 5487 5488 5486 5487 5490 5493 5496 5499
5652 5649 5645 5642 5639 5636 5632 5629 5626 5624 5621 5619 5617 5614 5611 5608 5605 5602 5599 5596 5593 5589 5586 5583 5579 5576 5573 5570 5567 5564 5562 5559 5556 5553 5550 5547 5543 5540 5537 5533 5530 5526 5523 5519 5516 5513 5510 5506 5503 5499 5496 5493 5490 5486 5484 5481 5479 5477 5474 5472 5471 5468 5466 5464 5461 5459 5458 5457 5460 5464 5466 5466 5463 5463 5464 5462 5462 5467 5469 5468 5470 5473 5475 5477 5481
5643 5639 5636 5633 5630 5626 5623 5620 5617 5614 5612 5610 5607 5605 5602 5599 5595 5592 5589 5586 5583 5579 5576 5572 5569 5565 5562 5559 5555 5552 5550 5547 5544 5540 5537 5534 5530 5527 5524 5520 5517 5513 5510 5507 5503 5500 5497 5493 5490 5487 5483 5480 5477 5474 5471 5469 5467 5465 5463 5461 5459 5456 5454 5452 5450 5447 5446 5446 5446 5447 5449 5450 5448 5447 5447 5446 5446 5447 5447 5447 5452 5457 5458 5458 5463
5634 5631 5627 5624 5621 5617 5614 5611 5608 5605 5602 5600 5597 5595 5592 5589 5586 5582 5579 5576 5573 5569 5565 5561 5558 5554 5551 5547 5544 5540 5538 5534 5531 5527 5524 5521 5518 5514 5511 5508 5504 5501 5498 5495 5492 5488 5485 5482 5479 5476 5473 5469 5466 5462 5459 5457 5455 5454 5452 5449 5447 5445 5443 5440 5438 5436 5434 5434 5434 5434 5435 5436 5435 5432 5432 5431 5432 5432 5429 5429 5435 5440 5440 5442 5448
5624 5622 5619 5615 5612 5608 5605 5601 5598 5596 5593 5590 5587 5585 5582 5579 5576 5573 5569 5566 5562 5558 5554 5551 5547 5543 5539 5536 5532 5529 5526 5522 5518 5515 5512 5509 5506 5503 5500 5497 5494 5491 5488 5484 5481 5478 5475 5472 5469 5465 5462 5458 5455 5452 5448 5445 5443 5442 5440 5438 5435 5433 5431 5429 5426 5424 5423 5423 5423 5422 5421 5422 5422 5420 5418 5417 5419 5419 5416 5415 5420 5422 5422 5426 5434
5616 5613 5610 5607 5603 5600 5596 5592 5589 5586 5583 5580 5578 5575 5572 5569 5566 5563 5559 5556 5552 5548 5544 5540 5536 5532 5528 5524 5521 5517 5514 5510 5507 5503 5500 5498 5495 5493 5490 5487 5484 5481 5478 5475 5472 5469 5465 5462 5459 5456 5452 5448 5445 5441 5438 5434 5432 5430 5428 5425 5423 5421 5418 5416 5414 5412 5411 5411 5411 5410 5409 5410 5409 5407 5405 5405 5406 5407 5406 5405 5408 5409 5407 5409 5418
5607 5604 5601 5598 5595 5592 5588 5584 5580 5577 5574 5571 5568 5566 5563 5559 5556 5552 5549 5545 5541 5537 5533 5529 5525 5521 5517 5513 5509 5506 5502 5499 5496 5493 5490 5487 5485 5483 5480 5478 5475 5471 5469 5466 5463 5460 5457 5453 5450 5446 5442 5438 5435 5431 5427 5425 5422 5419 5416 5413 5410 5407 5405 5403 5401 5399 5398 5398 5399 5398 5397 5398 5397 5394 5393 5394 5395 5396 5395 5394 5396 5397 5395 5395 5402
5597 5595 5592 5589 5586 5583 5579 5575 5571 5568 5565 5562 5559 5556 5553 5549 5546 5542 5538 5534 5530 5526 5522 5518 5514 5510 5506 5503 5499 5495 5492 5489 5486 5483 5480 5477 5475 5473 5471 5468 5466 5463 5459 5456 5453 5450 5448 5444 5440 5436 5432 5428 5424 5420 5417 5415 5411 5408 5406 5402 5399 5395 5392 5389 5387 5386 5385 5386 5387 5387 5385 5385 5384 5382 5382 5383 5385 5385 5384 5384 5384 5385 5384 5384 5387
5588 5585 5583 5580 5577 5574 5570 5567 5563 5559 5556 5553 5550 5546 5543 5539 5535 5532 5528 5524 5520 5515 5511 5507 5503 5500 5497 5493 5489 5486 5483 5480 5477 5474 5471 5469 5466 5464 5462 5459 5456 5453 5450 5446 5443 5440 5437 5433 5430 5426 5421 5417 5413 5409 5407 5404 5402 5399 5396 5393 5389 5385 5382 5378 5375 5373 5373 5373 5375 5376 5374 5373 5373 5372 5371 5371 5374 5374 5373 5374 5373 5372 5373 5372 5374
5579 5577 5574 5571 5568 5565 5561 5558 5554 5550 5547 5544 5540 5536 5532 5529 5525 5521 5517 5513 5509 5505 5501 5497 5493 5490 5487 5484 5481 5477 5474 5471 5469 5466 5463 5461 5458 5456 5453 5450 5447 5444 5440 5437 5433 5430 5426 5422 5419 5415 5411 5407 5402 5399 5397 5394 5392 5390 5387 5384 5381 5377 5373 5370 5366 5363 5362 5361 5363 5365 5364 5363 5362 5362 5361 5361 5362 5363 5362 5363 5363 5361 5361 5361 5361
5570 5568 5565 5561 5558 5555 5552 5549 5545 5541 5538 5534 5530 5526 5522 5518 5514 5510 5506 5502 5499 5495 5491 5488 5485 5481 5478 5476 5473 5469 5466 5463 5461 5458 5455 5452 5450 5447 5444 5441 5438 5434 5431 5427 5424 5420 5416 5412 5408 5405 5401 5397 5393 5389 5386 5384 5383 5381 5379 5376 5373 5370 5367 5363 5359 5356 5354 5353 5354 5355 5355 5354 5352 5352 5351 5352 5352 5353 5352 5352 5352 5351 5351 5351 5351
5562 5559 5556 5552 5549 5546 5543 5539 5536 5532 5528 5524 5520 5516 5512 5508 5504 5500 5496 5493 5489 5486 5483 5480 5477 5473 5470 5468 5465 5461 5458 5455 5452 5449 5446 5444 5441 5438 5435 5432 5428 5425 5421 5418 5414 5411 5407 5403 5399 5396 5392 5388 5384 5380 5376 5374 5373 5372 5370 5368 5365 5363 5360 5356 5352 5350 5348 5347 5347 5347 5346 5345 5344 5343 5343 5343 5343 5343 5342 5343 5343 5340 5341 5342 5343
5552 5549 5546 5543 5540 5537 5533 5529 5526 5522 5518 5514 5510 5506 5502 5498 5494 5491 5487 5484 5481 5478 5475 5472 5469 5466 5463 5460 5457 5454 5450 5447 5444 5440 5438 5435 5432 5429 5426 5423 5419 5416 5412 5409 5405 5401 5398 5394 5390 5387 5384 5380 5377 5372 5368 5365 5363 5362 5360 5359 5357 5355 5352 5349 5347 5346 5344 5342 5341 5340 5339 5337 5335 5335 5335 5335 5334 5333 5333 5335 5334 5331 5332 5334 5336
5543 5540 5537 5534 5530 5526 5523 5519 5516 5512 5508 5505 5500 5496 5493 5488 5485 5482 5479 5476 5474 5470 5467 5465 5461 5458 5455 5452 5449 5447 5443 5439 5435 5432 5429 5426 5424 5421 5418 5414 5411 5407 5404 5400 5397 5393 5390 5386 5382 5378 5375 5372 5369 5365 5360 5357 5354 5353 5351 5350 5349 5348 5345 5342 5341 5341 5339 5338 5336 5334 5332 5330 5328 5327 5327 5326 5326 5324 5324 5326 5325 5323 5324 5326 5328
5534 5531 5528 5524 5520 5516 5513 5509 5506 5503 5499 5495 5491 5487 5483 5480 5477 5475 5472 5469 5466 5463 5460 5457 5454 5451 5447 5444 5441 5439 5436 5431 5428 5425 5421 5418 5415 5412 5409 5406 5403 5399 5396 5393 5389 5385 5381 5378 5374 5370 5367 5364 5361 5357 5353 5349 5346 5344 5342 5341 5340 5339 5337 5335 5335 5334 5333 5332 5331 5329 5326 5324 5322 5321 5320 5319 5318 5316 5316 5316 5316 5315 5316 5318 5319
5525 5522 5519 5515 5511 5507 5504 5500 5497 5493 5489 5486 5482 5478 5475 5473 5470 5467 5465 5462 5459 5456 5453 5450 5448 5444 5440 5437 5434 5431 5429 5425 5421 5417 5414 5411 5408 5405 5402 5399 5395 5392 5389 5385 5382 5378 5374 5370 5367 5363 5359 5356 5353 5349 5346 5342 5338 5336 5334 5332 5331 5331 5329 5329 5328 5327 5326 5325 5324 5323 5321 5319 5316 5315 5314 5313 5312 5310 5308 5307 5307 5307 5308 5311 5311
5517 5513 5509 5505 5502 5498 5495 5492 5488 5485 5481 5477 5474 5471 5468 5466 5463 5460 5458 5455 5452 5449 5446 5444 5441 5438 5434 5430 5427 5424 5422 5418 5414 5411 5408 5404 5401 5397 5394 5391 5388 5384 5382 5378 5374 5371 5367 5363 5360 5356 5352 5349 5345 5342 5338 5335 5331 5328 5327 5325 5324 5323 5322 5322 5322 5320 5319 5318 5317 5316 5314 5312 5311 5309 5308 5307 5306 5304 5302 5300 5299 5299 5300 5302 5304
5507 5503 5499 5496 5493 5490 5487 5484 5480 5477 5473 5470 5467 5464 5462 5459 5456 5454 5451 5449 5446 5443 5440 5437 5435 5432 5428 5424 5420 5417 5414 5411 5408 5404 5401 5398 5394 5390 5387 5383 5380 5377 5374 5370 5367 5363 5359 5355 5352 5348 5345 5342 5338 5335 5331 5328 5324 5322 5320 5318 5317 5316 5315 5314 5314 5313 5312 5311 5310 5309 5307 5305 5304 5302 5301 5301 5299 5298 5296 5295 5293 5292 5292 5293 5295
5497 5494 5491 5487 5485 5482 5479 5475 5472 5469 5466 5463 5460 5458 5455 5452 5450 5447 5445 5443 5440 5437 5434 5431 5428 5425 5422 5418 5414 5411 5408 5405 5401 5397 5395 5392 5387 5384 5380 5376 5372 5369 5365 5362 5359 5355 5351 5347 5344 5340 5337 5333 5331 5328 5324 5321 5318 5315 5313 5311 5310 5309 5308 5307 5307 5306 5305 5304 5302 5301 5300 5297 5296 5295 5294 5293 5292 5291 5289 5287 5286 5285 5285 5286 5286
5488 5485 5482 5479 5476 5473 5470 5467 5465 5462 5459 5456 5453 5451 5448 5446 5444 5441 5439 5437 5434 5431 5428 5425 5422 5419 5416 5412 5408 5405 5402 5398 5394 5391 5388 5385 5381 5377 5373 5369 5365 5361 5357 5354 5350 5346 5342 5338 5335 5332 5328 5325 5322 5320 5317 5314 5311 5309 5307 5306 5304 5303 5302 5301 5300 5299 5298 5297 5295 5294 5292 5290 5289 5287 5286 5285 5284 5283 5281 5279 5278 5277 5277 5278 5279
5480 5477 5474 5471 5468 5465 5462 5459 5457 5454 5451 5449 5447 5444 5442 5440 5437 5435 5433 5430 5428 5425 5422 5419 5416 5413 5410 5406 5403 5399 5396 5393 5389 5384 5381 5379 5375 5371 5367 5362 5358 5354 5350 5346 5342 5338 5334 5330 5327 5323 5320 5317 5314 5312 5309 5307 5305 5302 5301 5299 5298 5297 5296 5295 5294 5293 5291 5290 5289 5287 5285 5283 5282 5280 5279 5278 5277 5275 5273 5271 5270 5269 5268 5269 5270
5473 5470 5466 5463 5460 5457 5455 5452 5449 5447 5445 5443 5440 5438 5436 5433 5431 5429 5426 5424 5421 5419 5416 5413 5410 5406 5403 5400 5397 5393 5390 5387 5383 5379 5375 5372 5369 5365 5361 5356 5352 5347 5342 5338 5334 5330 5326 5323 5320 5316 5313 5309 5306 5304 5302 5301 5299 5297 5295 5294 5292 5291 5290 5289 5288 5286 5285 5284 5282 5281 5279 5277 5275 5273 5272 5270 5269 5267 5264 5263 5262 5261 5259 5259 5261
5466 5463 5460 5456 5453 5450 5448 5445 5442 5440 5438 5436 5434 5431 5429 5427 5425 5422 5419 5417 5414 5412 5409 5406 5403 5400 5397 5394 5390 5387 5384 5380 5377 5373 5369 5366 5362 5358 5354 5350 5345 5341 5336 5331 5327 5323 5319 5316 5313 5309 5306 5302 5299 5297 5296 5294 5293 5292 5290 5288 5287 5285 5284 5282 5281 5280 5278 5277 5275 5274 5272 5270 5268 5266 5264 5263 5260 5258 5255 5254 5253 5252 5250 5250 5252
5457 5455 5452 5449 5446 5443 5440 5438 5436 5433 5431 5429 5427 5425 5422 5420 5418 5415 5412 5410 5407 5405 5402 5399 5396 5393 5391 5388 5384 5381 5377 5374 5370 5367 5363 5359 5356 5352 5347 5343 5338 5334 5329 5325 5321 5316 5312 5309 5306 5302 5299 5296 5293 5291 5290 5288 5287 5286 5284 5283 5281 5280 5278 5276 5274 5272 5271 5270 5268 5267 5265 5263 5261 5259 5256 5255 5252 5249 5246 5245 5243 5243 5241 5241 5243
5448 5446 5443 5441 5438 5435 5433 5431 5429 5426 5425 5422 5420 5417 5415 5413 5411 5408 5405 5402 5400 5398 5395 5392 5389 5386 5384 5381 5377 5374 5371 5367 5363 5360 5356 5352 5348 5345 5341 5336 5331 5326 5322 5317 5313 5309 5306 5302 5299 5295 5293 5290 5288 5286 5285 5283 5282 5280 5278 5277 5276 5274 5272 5270 5268 5266 5264 5263 5261 5259 5258 5256 5253 5251 5249 5247 5244 5241 5239 5237 5235 5234 5233 5233 5234
5439 5437 5435 5432 5430 5428 5425 5423 5421 5419 5418 5415 5413 5410 5408 5405 5403 5401 5398 5395 5392 5390 5387 5385 5382 5379 5376 5373 5370 5367 5364 5361 5357 5353 5349 5345 5342 5338 5334 5329 5324 5319 5314 5310 5306 5302 5299 5296 5292 5289 5287 5285 5283 5282 5280 5279 5277 5275 5273 5271 5270 5269 5267 5264 5262 5260 5258 5255 5253 5251 5250 5248 5246 5243 5241 5239 5237 5234 5232 5230 5228 5227 5226 5225 5225
5431 5429 5427 5424 5422 5420 5417 5415 5414 5412 5410 5408 5405 5403 5400 5398 5396 5393 5390 5387 5385 5382 5380 5377 5374 5371 5369 5366 5363 5360 5357 5353 5350 5346 5342 5339 5335 5332 5327 5322 5317 5312 5307 5303 5300 5296 5293 5290 5286 5284 5282 5280 5279 5277 5275 5274 5272 5270 5268 5266 5264 5263 5261 5258 5256 5254 5251 5249 5246 5244 5242 5240 5238 5236 5234 5232 5230 5228 5226 5224 5222 5220 5219 5218 5216
5423 5421 5419 5416 5413 5412 5410 5407 5406 5404 5402 5400 5397 5395 5393 5390 5388 5385 5383 5380 5377 5374 5371 5369 5366 5364 5361 5358 5355 5352 5349 5346 5343 5339 5335 5332 5328 5325 5320 5316 5311 5306 5302 5298 5294 5290 5287 5284 5281 5279 5277 5275 5274 5272 5270 5269 5267 5265 5264 5261 5259 5257 5255 5252 5250 5247 5245 5242 5240 5237 5234 5232 5230 5228 5227 5225 5224 5222 5220 5218 5216 5213 5211 5210 5207
5415 5413 5411 5408 5405 5403 5401 5399 5397 5396 5394 5392 5389 5387 5385 5383 5380 5377 5374 5372 5370 5367 5364 5360 5358 5356 5353 5350 5347 5344 5341 5338 5335 5332 5328 5325 5322 5318 5314 5309 5305 5300 5296 5292 5288 5284 5281 5278 5276 5274 5272 5271 5269 5267 5265 5264 5262 5260 5258 5256 5254 5251 5249 5246 5243 5241 5238 5236 5233 5231 5228 5225 5223 5222 5221 5219 5218 5216 5215 5212 5210 5207 5204 5202 5199
5406 5404 5402 5400 5397 5395 5393 5391 5389 5387 5385 5383 5381 5379 5377 5375 5372 5369 5366 5363 5361 5359 5356 5353 5350 5348 5345 5342 5339 5336 5333 5331 5328 5324 5321 5318 5315 5311 5307 5303 5299 5294 5290 5286 5282 5279 5276 5273 5271 5270 5268 5266 5264 5262 5260 5259 5257 5255 5253 5251 5248 5246 5243 5240 5237 5235 5232 5230 5227 5224 5222 5219 5218 5216 5215 5214 5212 5211 5209 5206 5203 5201 5198 5195 5193
5398 5396 5394 5391 5389 5386 5385 5383 5380 5379 5377 5375 5373 5371 5369 5366 5364 5361 5358 5355 5352 5349 5347 5344 5342 5340 5337 5334 5331 5329 5326 5323 5320 5317 5313 5311 5308 5304 5301 5297 5293 5288 5284 5280 5277 5273 5271 5269 5267 5265 5263 5261 5259 5257 5256 5254 5252 5250 5248 5245 5243 5241 5238 5235 5232 5229 5227 5224 5222 5219 5216 5214 5212 5211 5210 5208 5207 5205 5203 5200 5197 5195 5192 5189 5186
5389 5387 5385 5383 5380 5378 5376 5374 5372 5370 5368 5367 5365 5362 5360 5358 5356 5353 5351 5348 5344 5341 5338 5335 5332 5331 5329 5326 5323 5321 5318 5316 5312 5309 5306 5304 5301 5298 5294 5290 5286 5282 5278 5274 5271 5268 5266 5264 5262 5260 5258 5256 5255 5253 5251 5249 5247 5245 5242 5240 5238 5235 5233 5230 5227 5225 5222 5219 5217 5214 5211 5209 5207 5206 5204 5203 5201 5199 5197 5194 5192 5189 5186 5183 5180
5380 5378 5377 5374 5372 5370 5368 5366 5364 5362 5360 5358 5356 5353 5351 5349 5347 5345 5342 5339 5337 5334 5331 5327 5324 5321 5319 5317 5315 5313 5311 5308 5305 5301 5298 5296 5294 5291 5287 5284 5280 5276 5272 5268 5266 5263 5261 5259 5258 5256 5254 5252 5250 5248 5246 5244 5242 5240 5237 5235 5233 5230 5228 5225 5223 5220 5217 5215 5212 5209 5206 5204 5202 5200 5199 5197 5195 5193 5191 5188 5186 5184 5181 5177 5174
5371 5369 5368 5365 5363 5362 5360 5358 5355 5353 5351 5349 5346 5344 5342 5340 5338 5335 5333 5330 5328 5325 5323 5320 5316 5313 5310 5308 5307 5305 5303 5300 5297 5294 5291 5288 5286 5284 5281 5278 5274 5270 5266 5263 5260 5258 5256 5255 5253 5252 5250 5248 5246 5244 5242 5240 5237 5235 5233 5230 5228 5226 5223 5221 5218 5215 5212 5210 5207 5205 5202 5199 5197 5195 5194 5192 5190 5188 5185 5183 5181 5179 5176 5172 5168
5362 5360 5359 5357 5355 5353 5351 5349 5347 5345 5342 5340 5337 5335 5333 5331 5328 5326 5323 5321 5319 5316 5314 5311 5308 5305 5302 5300 5298 5297 5295 5292 5290 5287 5284 5281 5279 5277 5274 5271 5268 5265 5261 5258 5255 5254 5252 5250 5249 5247 5245 5243 5241 5239 5237 5235 5233 5231 5228 5226 5224 5221 5219 5216 5214 5211 5208 5206 5203 5201 5198 5195 5192 5190 5188 5187 5185 5183 5181 5178 5175 5173 5171 5167 5163
5354 5352 5350 5348 5347 5345 5343 5341 5338 5336 5334 5331 5328 5326 5324 5321 5319 5316 5314 5312 5310 5307 5304 5302 5300 5297 5294 5292 5290 5289 5287 5284 5281 5279 5276 5273 5271 5269 5266 5264 5261 5258 5255 5252 5250 5249 5247 5245 5244 5242 5240 5238 5237 5235 5233 5231 5228 5226 5224 5222 5220 5217 5215 5212 5210 5207 5204 5202 5200 5197 5194 5191 5189 5186 5184 5182 5180 5178 5176 5174 5171 5168 5165 5162 5159
5346 5344 5342 5340 5338 5336 5334 5332 5329 5327 5324 5322 5319 5317 5314 5312 5309 5307 5304 5302 5300 5297 5295 5293 5290 5287 5285 5283 5282 5280 5279 5276 5273 5270 5268 5266 5263 5261 5259 5256 5254 5251 5248 5246 5245 5244 5242 5240 5239 5237 5235 5234 5232 5230 5229 5226 5224 5222 5220 5218 5215 5213 5211 5208 5206 5203 5200 5198 5196 5194 5191 5188 5185 5183 5180 5178 5176 5174 5171 5169 5167 5164 5161 5157 5154
5337 5335 5333 5331 5329 5327 5325 5323 5320 5317 5315 5312 5310 5307 5305 5302 5300 5297 5295 5292 5290 5287 5285 5283 5281 5278 5275 5274 5272 5271 5270 5269 5266 5263 5260 5258 5256 5254 5252 5250 5247 5245 5242 5241 5240 5239 5238 5236 5234 5232 5231 5229 5228 5226 5224 5222 5220 5218 5216 5214 5211 5209 5207 5205 5202 5199 5197 5194 5192 5190 5187 5184 5182 5179 5177 5174 5172 5170 5167 5165 5163 5160 5157 5153 5150
5328 5326 5324 5322 5320 5317 5315 5313 5310 5308 5305 5302 5300 5297 5295 5292 5290 5287 5284 5282 5279 5277 5275 5273 5270 5268 5265 5264 5263 5262 5261 5260 5258 5256 5253 5251 5249 5248 5245 5244 5242 5239 5236 5235 5235 5235 5234 5232 5230 5228 5227 5225 5223 5222 5220 5218 5216 5214 5211 5209 5207 5205 5203 5201 5199 5196 5194 5191 5188 5186 5184 5181 5179 5176 5173 5171 5168 5166 5164 5161 5159 5156 5153 5149 5146
5319 5317 5315 5312 5310 5308 5305 5303 5300 5298 5295 5292 5290 5287 5284 5281 5279 5276 5274 5271 5269 5266 5264 5262 5260 5257 5255 5253 5252 5252 5252 5251 5250 5248 5246 5244 5242 5241 5239 5238 5236 5233 5231 5231 5230 5230 5229 5228 5226 5224 5223 5221 5219 5217 5215 5213 5211 5209 5207 5205 5203 5201 5199 5197 5195 5193 5190 5188 5185 5183 5180 5178 5176 5173 5170 5167 5165 5163 5160 5158 5155 5153 5150 5146 5143
5309 5307 5305 5302 5300 5297 5295 5292 5290 5287 5285 5282 5279 5276 5273 5270 5268 5265 5262 5260 5257 5255 5252 5250 5248 5246 5245 5243 5242 5242 5242 5241 5240 5239 5238 5236 5235 5234 5232 5231 5230 5228 5227 5226 5226 5225 5225 5224 5222 5221 5219 5217 5215 5213 5211 5209 5207 5205 5203 5201 5199 5197 5195 5194 5192 5189 5187 5185 5182 5180 5177 5175 5173 5170 5168 5165 5162 5160 5157 5155 5152 5150 5147 5144 5140
5300 5297 5295 5292 5290 5287 5284 5282 5279 5276 5273 5270 5268 5265 5262 5258 5256 5253 5250 5247 5245 5242 5240 5238 5236 5235 5233 5232 5231 5231 5231 5231 5231 5230 5229 5228 5228 5227 5226 5225 5224 5222 5222 5221 5221 5221 5220 5219 5218 5217 5215 5213 5211 5209 5206 5204 5202 5200 5198 5197 5195 5193 5192 5190 5188 5186 5184 5182 5179 5177 5174 5172 5170 5167 5165 5162 5160 5157 5154 5152 5149 5147 5144 5141 5138
5290 5287 5285 5282 5280 5277 5274 5271 5268 5265 5262 5259 5255 5252 5249 5246 5243 5240 5237 5234 5231 5229 5227 5225 5223 5222 5221 5220 5219 5219 5219 5220 5220 5221 5220 5220 5220 5219 5219 5219 5218 5217 5217 5217 5216 5216 5215 5214 5213 5212 5211 5209 5207 5204 5202 5200 5197 5195 5194 5192 5191 5189 5187 5185 5184 5182 5180 5178 5176 5174 5171 5169 5167 5164 5162 5160 5157 5154 5152 5149 5147 5144 5142 5139 5136
5280 5277 5275 5272 5269 5266 5263 5260 5256 5253 5249 5246 5243 5240 5236 5232 5229 5226 5222 5219 5216 5214 5212 5211 5209 5208 5207 5207 5207 5207 5208 5209 5210 5211 5211 5211 5212 5212 5212 5212 5212 5212 5212 5212 5211 5211 5211 5210 5209 5208 5206 5204 5202 5200 5198 5195 5193 5191 5189 5188 5187 5185 5183 5181 5179 5178 5176 5174 5172 5170 5168 5166 5164 5161 5159 5157 5155 5152 5150 5147 5144 5142 5139 5137 5134
5270 5267 5264 5261 5258 5255 5251 5248 5244 5241 5237 5233 5230 5226 5222 5218 5214 5210 5207 5204 5201 5199 5197 5196 5194 5194 5193 5194 5194 5195 5197 5198 5200 5201 5202 5203 5204 5205 5205 5206 5206 5206 5207 5207 5207 5206 5206 5205 5204 5203 5202 5200 5198 5196 5194 5191 5189 5187 5185 5183 5182 5181 5179 5177 5175 5173 5172 5170 5168 5167 5165 5163 5160 5158 5156 5154 5152 5150 5148 5145 5142 5140 5138 5135 5133
5259 5257 5254 5250 5247 5244 5240 5236 5232 5228 5224 5220 5216 5211 5206 5202 5198 5194 5191 5188 5186 5184 5182 5181 5180 5180 5180 5181 5182 5184 5186 5188 5190 5191 5193 5194 5196 5197 5199 5199 5200 5201 5202 5202 5202 5201 5201 5200 5200 5199 5197 5195 5193 5191 5190 5188 5185 5183 5181 5179 5178 5177 5175 5173 5171 5169 5168 5166 5164 5163 5161 5159 5157 5155 5153 5151 5149 5147 5145 5143 5141 5138 5136 5133 5131
5249 5246 5243 5239 5236 5232 5228 5224 5220 5215 5210 5205 5201 5196 5192 5187 5183 5179 5176 5173 5170 5168 5167 5166 5166 5166 5167 5168 5170 5173 5176 5179 5181 5183 5185 5187 5189 5191 5192 5194 5195 5196 5197 5197 5197 5197 5196 5196 5195 5194 5193 5191 5189 5187 5186 5184 5182 5180 5178 5176 5174 5172 5171 5169 5167 5165 5164 5162 5160 5159 5157 5156 5154 5152 5150 5149 5147 5145 5143 5141 5139 5137 5134 5132 5130